Location: Maiden_LMO
(35.5760°N, 81.2120°W)
Time: 20:34:54
(UTC-04:00)

Daily predictions for brighter satellites

Satellite Brightness Start Highest point End
(mag) Time Altitude Azimuth Time Altitude Azimuth Time Altitude Azimuth
Lacrosse 5 rocket 1.6 20:53:08 10° SW 20:56:54 68° NW 21:00:52 10° NE
Cosmos 1500 3.3 20:54:42 10° N 20:58:33 60° E 21:02:23 10° SSE
Meteor 1-13 Rocket 4.3 20:54:31 10° S 21:00:21 80° E 21:06:05 10° N
Lacrosse 5 4.5 20:57:00 10° W 21:01:07 24° NW 21:05:14 10° NNE
OTV 4 1.8 21:03:01 10° W 21:05:39 29° SSW 21:08:17 10° SE
Cosmos 1743 3.1 21:05:02 10° N 21:08:42 43° E 21:12:21 10° SSE
Cosmos 1726 Rocket 3.9 21:07:53 10° N 21:12:11 47° E 21:16:25 10° SSE
Cosmos 2233 Rocket 4.0 21:06:03 10° N 21:12:20 87° E 21:18:31 10° S
Cosmos 158 Rocket 4.2 21:08:07 10° SSW 21:13:07 75° WNW 21:18:19 10° NNE
ALOS 2.3 21:08:38 10° SSE 21:13:18 90° ESE 21:18:00 10° NNW
Okean 2 4.0 21:10:15 10° SSE 21:14:08 38° E 21:18:02 10° NNE
SeaSat 1 3.9 21:10:41 10° ESE 21:14:32 23° NE 21:18:24 10° N
CZ-3C R/B 4.0 21:09:30 10° SW 21:18:29 17° SSW 21:22:08 10° SSE
YAOGAN 11 4.1 21:16:00 10° SSE 21:20:23 83° ENE 21:24:44 10° N
Cosmos 1464 Rocket 4.4 21:15:00 10° N 21:20:50 44° E 21:26:41 10° SSE
Cosmos 2058 Rocket 3.4 21:18:57 10° N 21:23:11 46° E 21:27:10 11° SSE
Meteor 1-19 Rocket 4.2 21:17:48 10° S 21:23:26 87° E 21:29:03 10° N
Cosmos 2098 Rocket 3.5 21:20:37 10° NNW 21:23:58 53° W 21:28:04 10° S
Meteor 2-4 Rocket 3.8 21:19:18 10° S 21:25:02 65° E 21:30:54 10° NNE
Cosmos 2333 Rocket 4.1 21:23:17 10° SW 21:28:21 34° WNW 21:33:27 10° N
Cosmos 2251 Rocket 4.0 21:24:01 10° SSW 21:29:16 66° WNW 21:34:36 10° NNE
ATLAS 3B R/B 4.2 21:29:52 13° SE 21:32:51 17° ESE 21:37:20 10° ENE
deb Chang Zheng 4 3.5 21:29:20 10° NNE 21:33:45 84° ESE 21:38:07 10° SSW
Cosmos 2297 3.7 21:28:25 10° NNW 21:34:08 73° ENE 21:39:04 14° SSE
Milstar 3 Cent rocket 3.4 21:28:37 10° W 21:35:54 35° SSW 21:39:27 17° SE
PSLV R/B 4.5 21:37:02 20° ESE 21:38:08 25° ENE 21:40:44 10° NNE
CZ-2C R/B 1.0 21:36:24 14° S 21:38:12 55° W 21:40:29 10° NNW
Cosmos 2034 Rocket 4.4 21:32:38 10° N 21:38:45 47° E 21:43:36 16° SSE
H-2A R/B 3.9 21:35:23 10° S 21:39:07 43° W 21:42:54 10° NNW
ERS-1 Rocket 3.0 21:37:09 10° SSE 21:42:10 86° WSW 21:47:12 10° NNW
Envisat 3.3 21:39:38 17° SE 21:43:19 48° ENE 21:48:13 10° N
BREEZE-M DEB (TANK) 2.8 21:37:37 10° SW 21:44:14 85° NW 21:46:44 10° NE
OAO 3 Copernicus 4.2 21:42:09 10° W 21:47:12 81° S 21:50:52 19° ESE
Cosmos 1606 Rocket 4.3 21:43:39 10° NNW 21:47:58 52° W 21:52:14 10° S
Cosmos 1110 Rocket 4.1 21:42:50 10° NNW 21:48:08 78° WSW 21:52:38 14° S
USA 234 4.1 21:43:14 13° E 21:48:40 41° NE 21:54:43 10° NNW
YAOGAN 6 4.2 21:50:25 19° E 21:51:18 20° ENE 21:54:07 10° NNE
H-2A R/B 2.1 21:48:20 14° S 21:51:57 76° WSW 21:56:16 10° NNW
Cosmos 1626 Rocket 3.5 21:57:47 16° S 22:01:17 71° E 22:05:42 10° NNE
Abrixas rocket 3.3 21:59:04 10° NW 22:02:19 39° NNE 22:03:38 27° E
Atlas Centaur 2 3.2 22:04:46 10° SW 22:12:10 49° SSE 22:18:15 18° E
Cosmos 2278 Rocket 4.2 22:10:42 10° NW 22:15:04 23° W 22:19:26 10° SSW
Meteor 1-15 Rocket 4.5 22:12:32 10° NNW 22:18:05 67° W 22:22:12 19° S
Cosmos 2228 3.5 22:14:29 10° NNW 22:18:50 58° W 22:21:31 22° SSW
Aureole 2 Rocket 4.3 22:16:30 10° SW 22:20:14 35° WNW 22:23:41 10° N
H-2A R/B 3.6 22:19:20 17° E 22:20:18 18° ENE 22:23:39 10° NNE
PSLV R/B 3.5 22:17:04 10° WSW 22:20:37 72° NNW 22:22:27 26° ENE
Cosmos 1939 Rocket 3.8 22:18:34 20° SSW 22:21:10 45° W 22:25:11 10° NNW
COSMOS 2455 2.7 22:15:29 10° SSW 22:21:25 68° ESE 22:27:23 10° NNE
CZ-4 R/B 4.0 22:20:51 10° NNE 22:25:46 56° E 22:27:22 39° SSE
SPOT 1/Viking Rocket 3.6 22:26:44 39° SE 22:28:30 62° ENE 22:33:35 10° N
SPOT 5 2.9 22:26:56 30° S 22:28:59 62° WSW 22:33:19 10° NNW
Cosmos 2369 Rocket 3.4 22:25:00 10° N 22:29:43 27° ENE 22:31:20 23° E
ARGOS 3.4 22:29:23 38° ESE 22:31:05 52° ENE 22:36:20 10° N
SL-16 R/B 4.4 22:27:23 10° WSW 22:31:59 25° WNW 22:36:37 10° N
Cosmos 1666 4.1 22:29:17 10° NNW 22:32:52 35° W 22:34:49 21° SW
Cosmos 1190 Rocket 4.3 22:37:26 43° ESE 22:37:48 44° ESE 22:42:51 10° NNE
NOAA 11 4.3 22:37:27 43° ESE 22:38:54 56° ENE 22:44:11 10° N
Tsikada Rocket 4.5 22:33:55 10° SSW 22:40:13 62° W 22:46:34 10° N
Geosat 3.9 22:35:20 10° NNE 22:40:21 69° ESE 22:42:04 41° S
DEBRIS 3.3 22:42:43 10° NW 22:45:19 38° WNW 22:45:19 38° WNW
SeaSat 1 3.3 22:50:09 31° SSW 22:51:47 41° WSW 22:56:28 10° NW
Cosmos 1758 Rocket 4.2 22:53:08 41° ENE 22:53:08 41° ENE 22:56:34 10° NNE
Lacrosse 4 Rocket 3.3 22:55:02 19° NE 22:55:02 19° NE 22:56:21 10° NE
SL-08 RB Rocket 3.5 22:55:15 73° ESE 22:55:32 77° ENE 23:00:06 10° N
Terra 2.6 22:56:20 37° ENE 22:56:20 37° ENE 23:00:40 10° N
CARTOSAT-1 4.5 22:57:34 37° ENE 22:57:34 37° ENE 23:01:08 10° N
Cosmos 1066 Rocket 4.1 22:57:30 48° S 22:59:11 88° E 23:04:59 10° N
Cosmos 1515 4.4 22:58:52 47° WSW 22:59:15 49° W 23:03:01 10° N
Cosmos 1346 Rocket 3.5 23:03:05 46° NNE 23:03:05 46° NNE 23:05:56 10° NNE
Cosmos 1825 Rocket 4.0 23:10:25 54° WSW 23:10:53 58° W 23:15:16 10° N
Cosmos 1461 4.0 23:07:35 10° NW 23:11:08 35° WSW 23:11:08 35° WSW
Cosmos 2142 Rocket 4.4 23:07:53 10° N 23:14:12 83° W 23:15:38 56° S
Meteor 1-21 4.1 23:19:01 73° SE 23:19:26 77° E 23:25:14 10° NNE
ATLAS 3B R/B 2.9 23:16:52 19° SSW 23:22:44 87° WNW 23:30:22 10° NNE
Cosmos 1943 3.7 23:23:34 32° SW 23:26:02 58° WNW 23:31:39 10° NNE
Cosmos 1634 Rocket 4.2 23:20:24 10° NNW 23:26:29 62° W 23:27:54 49° SW
Cosmos 407 Rocket 3.5 23:27:23 75° WSW 23:27:40 77° WNW 23:32:56 10° NNE
USA 234 3.4 23:30:35 51° SSW 23:31:29 55° SW 23:37:54 10° NW
Cosmos 1943 Rocket 2.9 23:37:15 10° N 23:42:15 40° ENE 23:42:15 40° ENE
Cosmos 1954 Rocket 4.3 23:47:02 64° NNE 23:47:02 64° NNE 23:51:31 10° NNE
Cosmos 2279 Rocket 4.0 23:46:04 10° NNW 23:52:16 68° W 23:52:42 66° WSW
